Theta_e
328 328 327 326 327 329 328 328 327 328 326 326 326 326 326 327 328 327 327 326 326 325 324 323 321 320 320 320 320 321 321 321 323 322 321 321 322 321 322 324 323 322 324 324 326 326 326 326 325 325 324 322 321 321 320 320 320 320 318 317 316 312 310 307 305 305 306 307 306 305 305 304 303 304 303 303 305 308 308 306 305 302 301 301 301
328 328 327 327 327 329 328 327 328 326 325 325 325 325 326 327 327 327 326 326 326 325 323 323 321 320 318 318 319 321 320 321 322 321 320 319 320 323 322 321 321 322 322 322 321 326 324 324 326 324 326 324 320 321 320 319 319 316 313 315 314 314 311 308 305 303 303 305 304 305 304 305 303 305 303 303 304 306 307 305 304 302 302 302 300
328 326 326 325 327 329 328 328 329 326 325 324 324 325 327 326 326 326 325 325 325 324 324 322 321 319 318 317 318 320 320 320 319 319 318 316 316 318 320 320 320 320 321 322 323 325 324 323 323 322 324 320 319 318 317 315 313 311 312 314 314 312 310 310 307 304 304 303 304 303 303 304 303 304 305 306 306 307 306 305 304 303 304 304 302
327 326 325 324 325 326 327 329 327 326 325 324 324 325 327 326 326 326 325 324 324 324 323 323 321 319 317 317 318 319 320 319 319 318 317 316 315 318 319 320 320 320 320 321 322 323 323 322 321 321 320 318 318 318 316 316 315 311 313 313 313 313 311 309 309 306 303 304 304 304 304 304 304 306 307 308 307 307 307 305 305 304 304 306 305
326 325 324 323 324 326 327 327 326 325 325 324 325 326 326 326 326 325 324 323 324 323 322 322 321 318 318 317 318 318 319 318 318 317 317 316 316 316 317 317 318 319 320 320 324 322 322 322 321 319 317 317 318 316 316 315 316 313 312 312 313 315 316 313 310 309 307 305 305 306 305 305 306 306 308 306 306 307 307 305 305 304 303 305 307
323 323 323 323 324 325 324 324 325 325 325 324 325 325 325 325 325 325 324 323 324 323 322 322 321 318 316 316 316 318 318 318 318 317 317 316 314 313 315 316 317 319 319 321 321 321 320 320 319 319 318 315 315 316 315 314 315 315 315 313 314 314 312 313 312 310 308 306 306 306 304 305 304 305 307 307 306 305 305 305 305 305 303 303 305
323 324 324 324 324 322 323 323 324 323 324 325 325 325 325 325 325 324 324 324 322 321 321 321 319 317 316 315 316 315 312 311 312 314 315 314 312 313 315 316 318 319 319 320 320 320 320 319 318 318 317 317 317 315 315 315 316 315 313 313 313 313 311 311 313 312 310 309 307 307 305 305 304 303 306 308 307 306 304 303 302 305 304 303 303
322 323 322 321 322 322 324 324 324 323 323 325 325 325 325 324 324 323 322 320 318 318 318 318 318 316 315 313 312 310 308 306 307 309 314 313 312 314 315 315 316 318 319 318 319 319 318 318 318 318 318 317 315 315 317 317 316 315 315 314 315 314 313 312 311 310 311 311 310 308 309 305 306 308 308 306 304 304 305 305 302 303 304 305 305
322 322 322 321 321 323 323 324 323 323 323 325 324 324 324 322 321 321 320 319 319 318 318 318 316 315 314 312 309 308 307 305 303 303 308 314 316 314 315 315 315 316 315 317 318 318 316 316 314 313 316 315 311 312 314 315 314 312 312 315 315 314 314 314 313 309 310 310 310 310 309 309 308 307 307 304 304 304 305 306 305 305 306 305 306
322 322 322 322 321 322 322 322 322 322 322 324 324 323 322 321 320 320 319 318 317 317 318 318 316 313 311 310 308 306 304 303 300 298 298 308 314 318 317 315 315 314 315 316 317 316 315 315 317 319 313 312 307 302 302 305 310 312 310 311 312 312 312 312 312 312 311 309 308 309 308 307 307 309 309 308 308 309 309 308 305 306 305 306 306
321 321 321 322 321 321 320 320 320 319 320 323 323 322 321 320 318 317 317 318 317 316 316 315 314 313 310 307 305 303 301 299 296 293 295 303 314 315 316 314 314 314 313 314 315 314 313 314 313 316 314 312 306 300 299 298 298 299 301 306 312 312 310 309 309 310 310 310 309 309 307 307 307 309 308 309 308 309 308 307 308 306 306 304 303
319 320 321 321 321 321 320 320 319 320 320 320 321 321 320 319 318 319 318 317 315 315 314 313 311 310 308 305 303 301 298 295 292 294 294 297 307 316 317 317 317 314 314 313 315 315 314 314 315 317 316 314 310 305 302 297 296 296 296 296 297 300 304 310 309 308 308 308 308 309 309 308 309 308 308 309 308 307 307 308 305 306 305 304 302
309 314 319 320 321 320 320 319 317 317 318 318 319 320 320 320 319 316 314 314 314 312 310 308 306 304 302 300 298 297 296 293 292 294 294 296 303 314 318 317 317 317 317 317 318 319 318 318 318 321 320 321 321 316 308 306 303 304 305 304 301 298 296 299 303 310 310 307 308 306 308 309 309 309 309 310 309 310 307 307 306 306 303 303 303
305 307 310 314 317 317 316 314 315 316 317 316 317 318 317 316 315 314 312 310 308 306 305 303 302 301 299 297 296 295 294 293 292 293 294 295 301 311 319 317 317 316 317 318 319 318 318 317 317 317 312 307 308 314 317 314 313 312 311 310 311 308 301 297 296 298 303 309 307 308 309 312 311 310 313 313 313 311 309 309 308 309 308 309 305
303 304 305 307 311 312 312 312 312 312 312 312 311 312 313 313 312 311 309 307 306 304 302 301 300 300 298 297 296 294 293 292 292 293 293 294 297 309 317 318 317 317 317 318 318 318 318 319 318 315 310 306 302 300 309 313 313 313 311 312 311 311 311 312 310 307 305 308 308 310 312 312 313 314 315 316 317 314 315 312 312 311 310 308 308
302 302 303 304 305 308 310 310 310 310 310 309 309 309 309 309 309 309 308 307 305 304 302 300 299 298 298 297 296 294 294 291 292 293 294 294 301 315 317 317 316 317 318 317 317 317 318 318 317 310 307 305 298 294 298 310 313 311 311 310 310 309 308 311 306 306 311 313 313 313 314 310 302 307 306 307 309 310 308 309 309 308 307 306 306
301 301 301 302 303 304 306 307 307 307 308 308 308 308 308 308 308 309 307 307 305 304 302 301 300 299 298 297 295 295 294 292 292 293 295 296 304 313 315 315 315 316 315 313 311 312 316 317 313 308 306 302 295 294 296 304 311 311 310 310 311 310 311 312 306 303 301 298 295 295 295 296 294 293 295 295 303 307 309 308 308 307 304 304 305
301 301 301 302 302 303 304 304 304 305 305 305 306 307 308 308 308 308 307 307 306 306 305 304 302 300 298 297 297 295 294 293 292 293 294 296 301 308 308 308 309 313 313 310 307 306 308 311 309 305 302 299 292 294 296 305 307 307 307 308 309 309 306 307 309 309 304 303 302 302 300 297 295 295 295 296 296 301 310 307 309 307 307 306 305
300 301 301 303 303 302 302 303 303 303 303 303 304 304 305 305 305 306 306 306 305 305 304 304 303 303 302 300 301 295 294 294 292 292 293 295 300 303 304 304 304 305 308 309 307 304 300 299 300 300 298 294 291 292 293 300 304 304 304 305 303 304 301 301 304 304 304 305 307 308 307 308 308 306 306 298 296 299 306 310 310 309 308 307 306
301 302 302 303 303 303 303 302 302 302 302 302 303 303 304 304 304 304 304 304 303 303 302 302 301 300 300 299 298 295 293 293 293 291 293 295 296 301 301 301 301 302 303 305 307 305 300 296 295 290 291 291 290 290 290 294 301 302 301 300 301 302 300 300 301 300 302 303 304 307 308 310 312 313 312 311 306 303 304 307 308 309 308 308 306
300 301 302 302 302 303 303 303 302 302 302 302 303 303 303 303 303 303 303 303 302 302 301 300 300 299 299 299 297 296 295 293 292 291 292 293 294 295 296 297 299 300 301 302 302 303 300 297 296 292 291 291 291 290 290 291 291 298 299 299 301 300 296 299 301 299 301 302 303 304 305 306 307 308 308 309 307 303 302 303 305 306 307 306 304
299 300 301 302 302 302 303 304 304 304 303 303 302 302 303 304 303 303 303 302 302 301 301 301 300 299 298 298 297 296 297 297 294 292 291 292 292 293 294 293 294 299 298 297 297 297 297 297 296 293 291 291 291 292 291 290 289 294 297 295 295 294 297 297 297 298 300 301 301 301 303 303 304 305 305 306 306 304 304 304 303 302 299 302 302
299 299 300 301 301 302 303 303 304 305 304 304 302 301 302 303 303 303 303 302 302 301 301 301 300 299 298 297 297 296 295 296 294 294 292 291 291 291 291 293 292 298 297 297 296 296 296 296 297 295 291 292 291 291 291 290 289 291 290 291 291 290 291 295 295 298 297 298 299 300 300 300 301 303 304 304 305 303 299 299 298 298 297 297 297
299 299 298 298 299 299 299 299 300 301 302 303 304 303 303 303 303 303 303 303 302 302 301 301 300 299 298 297 297 296 295 294 293 292 292 291 291 291 291 290 290 294 297 296 295 294 294 293 293 291 291 291 291 291 291 291 290 290 289 290 289 290 293 293 294 297 295 294 296 297 299 301 301 303 301 301 297 299 298 298 297 296 295 295 294
298 298 298 298 297 297 297 297 298 299 300 300 299 298 298 298 298 300 302 302 302 300 300 300 300 299 298 296 295 296 297 296 295 293 293 293 292 291 291 291 291 290 293 294 293 293 291 291 291 291 291 291 291 292 293 294 293 292 291 289 291 291 292 292 293 294 294 293 296 298 299 300 299 299 299 299 299 298 297 296 296 295 294 295 295
296 296 296 297 296 296 295 296 297 297 298 298 297 296 295 295 295 295 297 298 298 297 297 297 297 297 296 296 295 294 293 293 292 292 292 293 292 292 291 292 293 291 291 291 290 290 290 291 291 291 292 293 294 293 293 294 291 291 291 293 292 291 292 294 294 294 295 295 296 296 295 296 298 298 295 295 296 295 294 295 295 295 294 293 293
296 296 296 297 296 295 295 294 295 295 295 296 296 294 293 293 293 293 294 295 295 295 295 295 295 295 294 293 292 292 290 290 289 289 290 290 291 292 293 293 292 292 292 290 290 290 291 292 291 291 292 292 292 292 291 292 293 295 295 294 296 294 294 294 295 297 296 296 294 296 295 295 296 296 295 292 293 293 292 293 293 292 294 294 293
296 296 296 296 296 298 294 290 292 293 293 292 292 293 293 292 291 291 291 292 293 293 293 293 293 293 292 293 292 291 289 289 288 287 287 288 289 290 290 290 289 289 289 289 289 290 290 291 292 293 293 294 294 295 295 294 293 292 295 295 296 297 297 297 297 298 298 298 297 295 294 294 293 292 292 292 292 293 294 293 292 292 293 294 290
297 297 297 297 296 296 296 294 293 293 292 292 291 290 291 292 292 290 290 290 291 293 293 292 292 292 291 291 291 290 290 289 289 288 286 288 286 288 289 288 287 288 290 288 289 289 288 290 290 290 291 288 289 291 292 292 290 292 294 294 295 297 296 296 295 294 294 293 290 289 289 289 289 289 288 290 291 292 293 294 294 294 293 293 291
297 297 297 297 296 297 296 294 294 293 293 292 292 291 288 288 289 290 289 289 288 288 290 291 292 292 290 289 290 290 289 289 288 288 288 288 288 288 288 288 288 288 288 287 288 285 285 287 288 288 288 289 288 288 287 288 289 289 290 290 291 293 292 292 291 289 288 288 288 286 284 284 284 285 287 286 288 290 290 291 292 291 289 288 288
296 296 296 295 295 295 296 296 294 294 294 293 292 290 291 290 288 288 289 289 288 288 288 289 290 290 290 288 287 288 288 287 287 288 288 289 288 288 288 288 288 287 287 286 287 288 288 288 288 289 288 289 288 288 288 288 288 287 288 288 289 289 288 289 289 286 285 286 284 284 283 284 284 284 284 286 288 289 290 289 290 290 290 289 289
294 294 295 295 295 294 295 295 296 295 294 294 292 291 290 289 289 289 288 288 289 289 288 288 288 289 290 290 290 288 288 288 288 288 289 289 289 288 288 288 288 288 286 288 289 288 288 288 288 288 288 288 288 287 288 288 287 287 287 287 287 287 288 287 286 286 285 284 284 284 284 284 284 285 286 287 287 288 288 288 288 287 287 288 288
293 293 293 294 294 294 294 294 294 295 296 294 293 292 290 288 288 287 288 288 288 288 288 288 289 289 289 289 289 289 288 288 289 289 289 289 289 289 288 288 287 286 289 289 287 287 287 287 288 288 288 287 287 287 287 288 287 287 287 286 286 286 289 288 285 286 284 284 284 284 285 286 286 287 287 287 287 286 287 287 287 287 287 287 287
293 292 292 293 294 294 294 293 293 293 294 293 293 293 292 291 289 287 287 286 288 289 289 289 288 288 288 289 289 289 289 289 290 290 290 290 290 290 288 286 288 290 290 287 287 286 286 287 287 288 288 287 287 287 287 288 287 286 285 286 285 285 286 286 286 284 284 284 284 284 286 287 287 287 286 286 286 286 286 286 286 286 286 286 286
295 292 289 291 294 294 293 292 292 293 292 293 292 292 294 292 291 289 288 287 287 287 287 288 288 288 287 288 289 289 289 290 290 290 290 290 290 290 290 288 288 288 289 289 289 288 287 287 287 288 287 286 286 286 286 288 286 286 286 285 285 285 284 284 285 286 285 285 286 287 287 287 287 286 286 286 286 286 286 286 286 287 286 286 286
294 293 293 293 294 293 293 292 292 292 291 291 292 292 292 291 292 291 289 289 289 288 287 288 288 289 289 289 288 288 289 289 290 290 290 290 290 290 287 286 286 287 287 288 288 288 288 288 289 289 289 289 289 289 289 289 289 289 289 287 285 284 284 285 286 286 286 286 286 286 287 286 286 286 286 286 286 286 286 286 286 286 286 285 285
292 291 291 291 292 292 293 293 291 290 289 288 290 292 291 291 289 292 292 291 289 288 288 288 288 289 289 289 288 289 289 289 290 289 289 289 289 288 287 287 287 288 287 288 288 289 289 289 289 289 289 289 289 289 288 289 289 288 288 287 285 284 284 284 284 286 286 286 286 286 286 286 286 286 286 285 285 285 285 285 285 285 285 285 285
293 291 291 291 292 293 292 292 290 288 289 289 291 290 289 290 289 288 288 288 288 287 289 287 288 287 286 288 294 289 287 289 290 289 289 288 287 287 287 286 287 288 288 288 288 289 288 288 289 288 289 289 289 289 288 288 287 287 285 285 285 284 287 285 286 286 286 286 286 286 286 286 285 285 285 284 283 283 284 284 284 284 285 286 285
291 287 287 288 288 291 291 290 289 290 290 290 290 288 287 288 288 290 290 289 287 287 286 287 287 286 286 286 287 290 289 286 285 284 284 284 284 285 286 286 286 287 288 288 288 288 288 288 288 288 288 288 288 288 288 286 285 284 284 284 284 283 284 283 284 285 285 285 284 284 283 283 283 283 284 284 283 283 282 282 284 284 285 285 285
292 291 290 288 288 290 290 288 289 289 287 289 289 288 288 288 288 287 289 288 287 286 287 286 286 287 286 288 286 287 287 284 284 284 283 283 284 285 285 285 285 286 287 288 287 288 288 288 288 287 287 288 288 288 286 285 283 282 282 282 282 282 282 282 283 284 284 283 283 283 283 283 283 283 283 283 283 283 282 282 282 283 284 285 285
292 291 291 289 289 290 290 288 288 289 289 289 289 289 288 287 288 287 288 288 287 286 287 287 286 286 287 288 288 287 286 284 284 283 283 284 284 284 284 284 285 286 287 287 287 287 288 287 287 286 287 287 287 287 286 284 285 284 282 282 281 281 280 280 281 281 281 281 281 281 282 281 282 282 283 283 285 284 283 284 283 283 283 283 283
292 291 290 290 289 289 291 289 288 289 289 288 289 287 287 288 288 289 288 287 286 286 286 286 286 286 287 289 289 289 285 284 284 284 285 284 285 284 284 285 285 286 287 287 287 286 286 287 286 286 286 286 285 284 284 284 283 283 283 283 283 282 281 280 280 280 280 280 280 280 280 281 281 282 282 286 282 282 283 283 283 284 284 283 283
294 292 291 291 290 289 289 290 289 289 287 287 286 287 287 288 288 287 288 287 287 286 285 286 287 286 286 287 288 287 286 285 285 285 284 284 285 284 284 283 283 284 285 287 287 285 284 284 284 284 284 284 283 283 283 283 284 283 283 283 282 282 282 282 283 282 282 282 281 281 281 282 281 281 283 282 282 283 283 282 282 282 282 282 282
293 293 293 291 292 290 289 289 288 287 286 286 286 286 287 287 288 289 288 288 287 287 287 287 287 288 288 288 287 286 284 285 285 284 284 284 284 283 283 284 283 283 283 283 283 282 282 283 283 284 284 283 283 283 284 284 284 283 283 282 282 283 282 282 281 282 281 280 282 282 281 280 281 281 283 283 280 282 282 281 282 281 281 280 281
294 294 293 292 292 291 291 289 288 287 286 286 286 286 286 287 288 288 287 286 286 287 287 288 287 287 287 288 288 285 286 285 284 285 284 284 284 283 283 282 283 282 283 283 282 282 281 281 280 281 282 282 281 283 285 285 283 283 282 282 281 281 280 280 280 281 280 282 282 282 281 279 279 279 281 282 281 281 282 280 280 283 281 281 281
294 294 292 292 291 289 289 289 288 288 287 285 286 287 287 289 290 289 288 288 288 289 289 288 288 287 287 286 285 285 285 285 285 285 284 283 283 283 283 283 283 282 282 282 282 282 282 281 280 280 279 280 282 282 282 283 283 282 281 280 279 278 278 278 279 281 281 281 282 281 282 283 282 282 283 280 281 281 282 282 282 282 282 283 283
294 293 292 292 291 290 290 289 288 288 287 286 286 286 287 287 289 288 287 289 289 289 288 287 286 287 287 286 285 285 285 284 285 284 284 284 283 282 282 282 283 282 282 282 281 282 280 280 280 280 282 282 282 282 282 282 281 280 280 278 277 277 278 278 280 278 279 281 281 281 280 282 282 281 282 282 282 282 282 282 283 283 283 284 282
291 291 291 291 292 291 290 290 289 287 287 287 286 286 287 287 288 289 289 288 288 288 289 289 289 288 287 287 286 285 285 285 285 285 284 283 283 283 283 282 283 282 283 282 280 280 280 279 280 282 282 282 282 281 281 280 279 278 278 277 276 276 277 278 278 278 279 281 282 281 281 281 281 281 281 281 279 280 281 280 282 282 282 282 283
289 289 289 291 290 291 289 289 289 288 288 287 286 286 286 288 288 289 288 288 286 287 289 288 289 287 286 287 285 284 284 286 285 285 283 283 283 283 282 283 282 282 282 282 281 281 282 282 283 282 281 281 280 280 280 278 277 276 276 275 277 277 277 277 277 277 278 281 281 281 281 281 280 280 281 281 280 279 280 280 280 281 281 281 282
291 290 291 290 291 291 290 289 289 288 287 287 287 286 286 287 287 288 289 288 288 289 289 289 288 287 288 286 285 285 284 285 285 284 284 283 284 283 283 282 282 282 282 281 281 281 282 282 282 281 280 279 278 278 277 276 275 275 274 275 276 276 276 276 277 277 277 275 278 278 279 279 278 278 279 279 278 278 279 280 280 281 280 279 280
291 291 291 291 291 291 291 289 289 289 289 289 288 287 286 287 286 287 288 289 289 289 287 288 289 289 288 286 285 284 285 285 285 285 285 284 284 283 283 283 283 281 281 282 283 282 282 283 281 281 280 279 278 277 275 274 273 272 274 275 275 275 275 275 276 275 276 276 277 279 279 279 278 279 279 279 278 277 280 279 279 278 278 278 279
Wind_Speed
8 9 9 8 4 4 5 4 4 3 3 4 5 6 5 5 6 7 8 8 8 8 6 7 6 6 5 4 4 3 5 5 4 5 4 4 5 5 4 5 5 5 5 4 4 4 3 4 4 3 3 3 3 3 4 4 2 2 1 5 8 7 8 6 7 5 1 2 7 7 7 9 6 6 8 6 6 4 4 4 5 5 4 5 4
8 9 8 6 5 4 6 5 4 3 3 4 4 5 5 6 7 8 8 7 7 7 6 6 6 6 5 4 3 4 4 4 5 5 4 4 4 4 5 4 5 6 6 5 4 4 4 4 4 4 3 3 2 2 3 2 2 2 4 5 6 5 5 5 4 5 5 3 3 4 6 7 7 7 9 8 7 5 5 5 4 5 6 5 5
6 3 3 4 6 6 7 7 5 4 4 4 4 4 5 6 6 8 8 7 6 6 7 7 7 6 5 5 4 4 4 4 4 4 4 5 3 1 5 6 6 6 6 5 4 4 4 4 4 3 1 2 3 2 1 2 3 5 4 5 6 6 5 6 5 4 8 5 5 7 6 6 7 9 8 9 10 9 7 7 7 6 6 6 6
5 4 4 3 3 6 9 7 7 5 5 4 4 4 5 6 6 8 7 6 6 5 7 7 7 6 5 5 4 4 3 4 4 5 5 4 4 5 6 7 7 7 6 6 6 5 5 4 4 3 3 4 2 1 1 1 1 3 5 5 7 6 5 4 6 7 4 8 5 8 7 8 5 8 9 8 9 9 9 8 7 8 8 8 8
5 4 6 5 6 9 9 8 8 7 5 5 5 7 7 7 7 8 7 6 5 6 6 6 6 6 6 5 4 4 4 4 4 4 4 3 4 4 5 5 6 6 6 6 7 6 5 5 4 3 4 2 2 1 1 5 4 3 1 3 7 6 5 5 4 6 7 8 6 4 7 6 5 8 9 9 7 7 7 8 10 10 9 9 8
4 6 8 11 10 8 7 9 4 7 7 7 8 8 6 6 7 6 7 6 6 7 7 5 6 6 6 5 5 4 4 3 4 5 4 4 3 3 2 3 4 5 6 6 6 5 6 5 4 4 3 3 1 2 5 5 5 4 4 4 5 5 5 5 6 5 7 7 7 5 5 7 3 6 9 9 9 8 6 7 5 7 8 8 9
5 8 10 10 9 7 9 11 7 3 4 8 8 7 6 6 7 6 5 6 6 6 6 6 5 7 5 4 6 8 8 7 5 2 3 4 4 2 1 3 5 6 6 7 6 5 5 5 5 4 4 4 5 5 5 6 6 5 4 4 4 5 5 4 6 6 5 5 3 5 8 5 5 7 8 9 10 10 10 6 7 8 7 9 9
3 5 5 6 6 9 9 11 8 7 6 7 9 7 7 5 6 5 6 6 6 6 6 7 5 7 10 9 8 8 8 8 6 5 4 2 4 2 2 4 4 4 5 6 5 4 4 4 5 4 5 5 5 5 6 6 6 6 5 4 5 6 3 3 3 5 5 5 4 4 3 6 3 1 4 6 4 4 5 6 9 8 9 9 10
5 5 3 4 5 7 7 6 5 6 8 8 8 8 6 6 6 7 6 6 5 5 5 9 11 10 10 9 9 8 9 7 4 5 3 4 3 4 4 3 5 6 5 5 6 7 6 6 5 6 7 8 10 10 9 8 6 6 4 5 5 6 6 7 6 4 1 3 2 3 5 3 3 4 2 6 8 10 8 5 6 8 8 7 8
5 5 6 4 4 6 6 7 6 2 7 9 9 8 7 6 7 7 6 5 4 5 9 11 10 10 11 9 9 8 7 5 7 8 5 1 3 3 4 4 5 5 6 8 7 7 7 7 6 11 11 11 12 13 14 13 10 7 4 5 6 6 6 6 6 5 5 5 3 1 1 4 5 4 4 4 5 4 5 7 8 9 4 5 3
3 4 3 4 5 6 6 6 7 3 5 4 8 7 8 7 7 6 7 8 9 9 10 11 10 9 10 10 9 7 5 5 9 7 8 8 6 4 2 3 5 4 5 7 6 5 5 6 6 8 9 8 9 13 13 12 11 10 9 8 6 5 5 6 4 3 3 2 1 3 2 1 2 3 3 4 3 4 4 6 7 3 4 5 6
4 5 4 8 9 8 6 6 6 6 5 8 2 6 7 8 9 9 9 10 9 10 12 10 10 9 9 10 9 7 7 7 8 8 8 9 7 7 6 5 3 3 3 5 4 4 4 4 4 4 5 5 4 7 8 8 9 9 9 9 9 8 6 5 3 3 2 1 1 1 0 1 0 2 1 0 2 2 1 1 3 3 3 4 3
11 8 6 7 9 8 5 5 6 7 7 4 1 9 10 11 11 10 10 8 10 11 10 10 9 8 9 11 9 6 7 10 10 10 9 8 9 8 6 8 10 10 10 10 9 8 8 8 8 8 7 11 7 4 4 5 6 8 9 10 9 9 7 5 3 2 3 1 0 2 1 1 2 3 1 1 1 0 1 2 0 1 2 2 5
12 11 12 9 7 8 7 8 8 8 8 5 4 9 11 10 10 9 9 10 11 10 10 10 8 9 9 10 8 7 8 10 11 11 10 10 9 8 7 9 8 8 9 9 8 8 8 7 6 7 8 9 7 7 4 3 3 2 3 2 2 4 7 8 6 4 4 2 2 3 3 3 4 3 4 2 2 4 3 4 3 3 4 4 4
12 12 12 11 9 9 8 9 10 8 8 7 9 10 10 10 10 8 8 9 10 9 8 9 8 8 8 7 9 9 8 12 13 12 11 10 9 7 7 7 8 8 7 7 8 9 8 8 7 8 7 6 7 8 6 5 3 3 2 2 2 2 1 0 0 1 1 2 3 5 5 3 4 5 5 4 5 4 3 2 3 3 2 1 1
13 13 14 12 11 10 8 8 10 8 7 9 12 12 10 9 9 8 10 10 9 9 8 8 8 8 7 8 10 10 9 14 14 14 13 11 9 5 6 8 8 7 7 7 6 5 5 7 8 7 6 8 9 10 7 3 3 2 3 3 3 3 3 4 5 5 4 4 3 4 4 3 3 4 3 2 1 1 2 4 5 3 3 3 5
13 13 12 11 11 10 10 9 9 9 6 8 11 11 11 11 7 6 11 10 11 10 8 8 6 8 9 9 10 8 9 12 14 15 14 13 8 6 6 8 9 10 7 7 7 7 6 7 9 9 9 7 7 12 13 9 6 6 5 5 4 4 4 5 6 6 5 3 6 8 11 11 10 8 8 6 4 1 3 4 7 7 7 7 6
12 12 11 10 9 9 10 10 9 10 10 8 8 9 8 7 9 5 10 11 11 9 8 8 8 7 9 10 8 9 8 11 15 15 15 15 11 7 6 8 9 8 7 6 7 9 11 15 9 7 8 8 10 12 12 8 6 5 5 5 5 5 4 5 5 5 6 6 6 6 7 9 10 10 10 10 9 3 4 6 7 4 7 6 6
11 10 9 8 9 9 8 10 10 10 10 9 8 9 9 7 6 8 9 10 9 8 8 8 7 8 8 9 11 10 8 9 14 14 15 14 10 7 7 6 8 5 6 6 6 7 7 9 13 10 8 7 10 10 10 8 5 4 4 4 4 4 3 4 5 7 8 8 7 7 6 6 4 4 6 11 11 8 6 7 4 4 6 7 6
8 8 8 8 8 8 8 10 10 9 9 10 9 8 7 8 9 9 9 8 7 7 7 8 9 8 7 7 7 7 8 7 10 14 14 14 12 8 6 7 6 5 4 5 6 6 6 6 7 9 9 8 8 7 6 5 3 1 2 2 2 5 2 4 3 3 5 5 6 5 5 6 6 5 4 4 4 5 6 5 5 5 6 7 6
8 8 7 8 8 8 8 9 10 9 8 8 8 8 7 8 7 9 9 8 8 8 8 7 8 7 7 6 7 7 7 8 9 13 14 14 13 11 7 6 4 4 5 6 6 6 5 4 2 5 8 7 6 3 2 1 2 1 2 3 3 1 2 4 5 5 4 5 5 5 6 6 5 5 6 6 5 3 3 4 4 4 5 6 6
9 9 8 8 8 8 8 6 7 7 8 8 8 8 6 7 7 8 7 7 8 7 6 6 7 6 5 6 7 7 7 9 8 11 14 14 13 12 8 4 2 2 6 7 6 6 4 3 3 5 8 6 4 2 3 3 4 2 4 7 9 6 4 3 4 4 4 5 6 6 6 6 7 7 7 7 7 4 4 4 1 1 3 2 1
9 9 9 8 8 7 6 6 5 5 6 6 7 8 6 7 5 5 6 6 6 6 6 6 6 7 6 6 6 6 6 7 10 9 11 11 11 10 9 6 8 5 6 7 5 3 2 3 4 7 5 4 4 5 6 6 3 5 8 7 6 5 3 3 3 4 5 5 4 5 6 6 7 7 7 8 8 6 5 5 5 6 6 6 7
8 9 9 9 9 9 9 9 8 7 6 5 5 6 5 4 3 3 2 4 5 4 4 5 5 6 7 7 6 6 5 6 8 10 8 10 11 12 11 9 8 5 6 6 4 4 6 6 6 8 7 6 5 4 4 4 4 7 6 6 5 4 3 3 3 4 3 4 5 5 6 5 4 5 6 5 3 6 6 5 6 6 6 6 6
6 7 8 8 8 7 8 9 10 10 9 9 9 8 8 8 7 5 4 4 2 2 1 3 5 5 6 7 6 5 5 7 7 10 13 11 12 13 14 15 13 10 6 5 4 4 5 8 9 10 9 8 7 6 4 2 4 3 4 5 5 3 4 4 3 1 3 5 5 5 3 5 4 3 3 1 3 4 5 5 5 6 5 6 5
10 9 8 8 9 10 9 9 9 10 10 9 8 7 7 7 6 6 7 7 7 7 7 7 7 7 7 6 6 6 5 6 6 6 6 7 8 12 12 14 13 10 8 7 9 10 10 10 10 9 8 7 5 5 5 7 10 10 6 3 2 3 3 2 1 2 3 3 4 3 4 5 6 6 2 3 5 3 3 3 5 5 4 5 5
8 8 9 8 8 9 9 8 8 8 8 8 8 8 7 7 7 8 7 7 7 8 8 8 8 8 8 6 5 5 6 6 5 5 6 6 6 6 8 8 10 9 7 7 7 7 9 8 7 8 7 10 7 4 4 6 7 7 7 7 6 5 2 2 1 4 5 5 4 5 5 6 5 7 7 4 5 4 3 5 5 2 4 3 5
10 9 8 6 6 6 7 9 10 8 8 8 8 8 8 7 8 8 7 6 6 7 7 8 7 6 6 5 5 5 5 5 5 5 6 6 6 6 6 6 6 5 6 6 6 6 6 7 8 7 8 8 8 8 8 8 8 7 8 8 8 8 9 8 8 6 5 5 4 4 5 6 6 6 5 5 4 4 3 1 3 3 3 3 3
6 8 10 9 7 4 5 6 7 6 7 8 8 8 6 6 7 7 7 5 4 5 7 6 6 5 5 5 5 5 4 5 3 2 2 3 4 6 6 6 5 5 5 8 6 5 7 9 10 10 8 7 8 8 7 8 7 7 8 7 7 8 7 7 7 7 5 6 6 6 6 6 6 5 5 6 6 5 5 4 5 1 1 3 4
6 6 6 7 8 6 4 4 4 5 6 6 7 8 11 14 9 7 6 10 13 12 7 5 5 5 7 5 4 5 5 2 1 3 4 6 6 5 4 5 4 4 7 8 3 4 6 8 8 8 8 8 8 8 7 7 7 7 8 7 7 7 7 6 6 5 5 5 4 5 3 3 5 5 5 5 5 5 5 5 3 4 4 4 5
4 4 5 7 7 6 3 4 3 5 5 6 5 6 6 8 11 12 8 8 9 11 11 9 9 8 8 6 5 8 6 3 3 5 7 7 6 6 6 6 6 5 6 6 7 8 7 8 7 7 7 7 7 7 6 7 7 7 6 7 7 7 6 6 5 4 5 4 5 4 5 5 5 5 6 5 5 5 5 5 5 5 5 4 5
3 3 4 4 6 6 6 6 3 5 4 4 5 5 5 6 7 9 10 10 10 11 11 10 9 9 9 7 5 4 5 7 7 6 6 6 6 4 3 2 3 3 1 1 8 8 7 7 7 7 6 7 7 6 6 6 6 6 6 8 7 6 6 6 4 5 5 5 5 5 5 5 5 5 5 4 4 5 5 6 6 5 5 4 4
5 4 6 7 6 6 7 7 7 4 2 5 5 5 5 6 7 5 6 7 7 8 9 10 10 10 11 10 9 7 5 5 6 6 5 5 6 8 11 9 6 3 5 9 8 7 7 7 7 6 7 7 6 6 6 7 7 7 7 6 6 5 6 3 3 5 4 4 5 5 5 5 4 3 4 3 4 4 4 4 4 4 4 5 5
4 5 5 5 6 6 5 5 6 5 4 3 1 2 4 5 6 6 6 4 5 7 8 8 7 6 5 6 7 5 5 7 9 11 12 13 14 13 10 6 7 10 11 7 8 7 6 7 7 7 6 7 7 7 7 6 6 5 5 6 4 4 4 4 5 5 5 5 5 4 4 4 3 4 4 4 3 3 4 4 4 4 4 4 4
5 7 9 6 4 5 5 5 5 5 5 5 3 2 4 5 5 6 6 7 6 6 3 1 3 3 2 3 5 8 10 12 13 13 13 13 13 13 12 9 9 8 9 7 7 7 7 7 7 7 6 6 6 6 6 5 5 6 5 6 6 6 6 6 5 4 4 4 5 4 3 4 3 3 4 4 4 5 4 4 4 4 4 5 4
3 3 3 3 3 4 4 4 3 4 5 4 5 6 3 7 9 6 4 4 6 5 3 1 0 3 4 4 5 7 10 12 13 14 14 14 13 12 8 7 7 8 7 7 6 6 6 6 6 6 6 6 6 6 5 5 5 5 5 6 6 6 5 5 5 5 5 5 5 4 4 4 4 3 4 4 4 4 3 4 4 4 4 3 3
2 3 3 3 3 3 5 3 3 4 6 5 5 6 7 4 4 7 7 5 4 4 5 4 3 2 3 2 3 6 8 11 13 14 13 13 13 9 7 6 6 6 6 6 5 5 6 6 5 5 6 5 5 5 4 4 5 4 5 6 5 5 5 4 4 4 5 4 4 4 4 4 4 4 4 4 4 5 5 5 5 4 3 4 3
2 3 3 3 3 4 5 4 6 7 7 5 4 4 6 5 6 8 8 6 5 4 5 4 4 4 4 3 3 5 6 10 13 11 10 9 7 7 7 7 6 6 6 5 5 5 5 5 5 4 5 5 5 5 4 5 4 5 5 5 5 5 5 5 4 4 4 4 4 4 4 4 5 4 4 5 3 3 5 5 5 5 5 5 3
3 4 4 5 5 3 3 6 7 7 7 6 6 7 7 7 7 9 9 7 6 5 5 5 4 4 4 4 6 5 9 7 6 5 5 5 5 6 7 7 6 5 5 4 4 5 5 4 4 5 5 5 5 5 4 4 4 5 4 5 5 4 6 5 5 4 4 4 4 4 3 3 3 3 2 2 4 3 3 4 4 3 4 4 3
0 1 2 3 3 3 1 2 5 6 5 6 7 7 7 6 5 5 7 7 7 6 6 5 4 5 4 5 6 6 7 5 4 4 4 4 6 6 7 6 5 5 4 4 4 4 4 4 4 5 5 5 5 5 5 5 4 3 4 4 4 4 3 3 3 3 3 2 3 3 4 4 4 3 4 3 4 5 3 3 3 1 1 0 3
2 2 1 2 5 4 1 4 4 3 6 6 5 6 6 6 5 6 5 6 6 5 5 5 4 4 6 7 9 9 6 4 3 3 3 5 7 6 5 6 5 4 3 4 4 5 4 4 4 4 4 4 4 5 5 5 6 6 5 4 4 2 2 2 2 2 3 3 3 3 3 3 3 3 6 6 5 5 4 4 4 4 3 4 4
2 3 3 4 4 2 1 3 3 2 4 4 5 5 7 5 4 6 5 4 4 5 6 4 3 4 6 12 11 10 6 4 5 7 6 6 6 5 4 4 3 3 3 4 5 4 3 3 2 3 3 5 5 5 6 5 4 4 5 5 4 4 4 4 3 3 3 3 3 3 3 3 4 3 3 4 5 4 6 5 4 4 5 4 4
0 2 3 6 6 2 5 6 5 5 4 4 3 4 4 4 2 4 6 6 6 6 4 2 0 0 5 8 9 8 7 7 6 6 6 6 6 5 6 5 4 4 3 4 3 4 3 3 2 2 3 3 3 4 4 4 4 5 5 5 5 6 6 6 7 7 6 6 5 5 4 4 3 4 4 3 3 4 4 4 4 3 2 2 3
2 4 4 4 3 5 5 6 6 5 4 3 2 2 1 4 3 3 5 6 5 4 4 4 3 2 2 6 6 5 5 5 6 6 6 5 6 5 4 4 4 4 4 4 3 2 3 2 2 2 2 2 2 4 5 4 5 5 5 5 5 5 5 5 5 6 6 5 6 5 5 3 3 4 4 4 3 5 5 4 3 3 2 2 3
2 3 3 5 2 6 5 5 6 6 4 3 1 1 1 4 2 1 5 4 3 3 1 0 2 2 4 3 4 7 7 7 6 5 6 6 6 5 5 4 5 4 4 4 3 3 3 3 3 3 3 2 1 3 5 6 5 5 5 5 5 5 4 4 4 4 3 4 6 5 5 3 4 4 4 4 4 4 6 4 4 3 3 2 2
1 2 4 5 2 5 5 5 5 5 4 3 2 1 3 2 2 4 4 5 5 4 1 2 2 2 5 6 7 6 6 7 7 6 5 5 5 5 5 5 5 5 4 4 4 4 3 3 2 2 3 4 5 6 6 5 5 5 4 4 3 2 1 2 3 4 5 4 5 4 4 6 6 6 6 5 6 5 5 5 5 5 4 1 1
1 2 5 5 5 4 6 6 6 5 4 4 3 1 1 1 4 5 4 4 5 2 3 3 3 1 3 6 7 7 6 7 7 7 6 5 5 6 6 4 4 5 4 5 3 4 3 2 2 4 5 4 5 5 5 5 5 5 4 3 3 3 4 4 4 3 4 3 3 4 4 5 6 6 7 6 6 6 5 5 4 4 4 5 4
3 1 4 4 5 1 7 5 6 6 5 5 4 3 2 2 2 2 4 5 4 4 4 3 3 3 6 6 5 7 7 7 6 6 5 5 4 5 6 5 5 5 5 4 3 2 2 3 5 5 5 5 5 5 4 4 4 4 4 4 4 4 5 5 3 4 4 4 4 5 5 6 5 4 4 4 5 4 5 5 5 5 4 4 5
2 4 2 4 5 2 4 6 6 6 6 5 6 5 4 3 3 5 4 4 4 3 3 2 5 4 5 6 5 7 8 8 7 6 6 5 4 4 5 6 5 5 5 4 4 4 5 6 5 5 5 5 5 4 4 3 3 3 3 3 5 8 7 7 5 6 6 4 5 5 4 4 4 4 5 4 4 3 4 4 4 5 5 5 6
3 2 1 2 4 5 2 6 6 7 5 6 6 5 5 5 4 7 6 4 4 5 4 4 4 4 6 6 7 4 8 7 7 7 6 6 5 5 5 5 5 5 5 5 4 4 5 5 5 5 5 4 5 4 4 4 3 3 3 4 7 8 9 8 8 9 7 4 4 3 4 4 3 3 3 4 3 3 5 4 4 6 4 5 5
2 1 1 2 3 5 7 4 6 6 6 7 6 7 6 6 6 6 7 7 6 6 5 2 1 1 1 4 5 6 8 7 7 7 7 6 6 5 5 5 6 4 4 5 5 5 5 6 6 5 5 4 4 5 4 4 3 3 5 7 8 9 9 9 6 8 8 6 3 4 5 4 4 5 5 5 5 4 5 4 5 5 4 4 4
Wind_Direction
174 190 188 198 175 166 150 160 204 203 193 182 160 149 149 142 133 134 128 130 130 133 132 126 131 125 122 134 142 136 144 139 143 149 151 154 161 166 162 154 147 136 129 123 138 129 140 144 154 166 161 144 149 149 145 162 147 190 169 171 165 163 143 132 133 143 52 129 143 154 157 141 149 155 152 168 177 188 181 171 160 169 181 183 192
210 198 197 164 155 156 157 166 192 192 169 195 162 147 148 135 140 126 129 138 133 133 129 131 127 124 131 148 148 144 143 126 151 152 151 145 181 184 155 149 135 136 134 146 149 132 130 134 145 167 159 151 167 158 164 169 163 159 173 133 134 143 146 112 140 133 146 134 120 130 150 164 149 173 162 171 184 181 181 174 184 186 190 189 194
253 239 183 121 178 171 164 173 180 170 165 187 164 152 149 133 127 123 127 133 131 125 134 136 133 137 139 151 148 147 149 140 130 127 131 151 131 89 151 146 136 133 137 147 142 132 123 127 154 158 137 162 177 199 111 169 186 166 118 100 106 139 146 138 125 125 145 167 164 155 170 179 167 179 183 181 181 179 178 180 187 197 202 194 200
222 181 103 149 201 185 170 172 169 159 168 174 154 141 137 128 125 124 129 131 128 129 135 137 135 138 137 141 150 141 126 126 99 125 130 100 81 109 115 127 138 144 141 139 138 140 139 139 158 167 170 172 196 291 148 118 142 126 121 119 110 119 138 131 139 134 146 140 195 171 185 170 192 177 181 180 175 182 190 187 190 195 201 198 201
220 153 124 158 207 204 169 159 166 160 171 153 157 143 141 137 130 130 133 140 128 135 130 132 129 135 133 141 149 131 144 124 103 114 96 92 115 106 117 133 138 137 141 148 147 144 142 157 171 159 143 138 255 350 10 49 42 89 116 126 122 122 115 118 127 133 140 156 174 211 181 188 174 174 173 176 188 190 188 189 195 201 204 208 206
240 172 175 190 193 194 157 158 160 169 166 163 156 148 149 141 133 133 139 143 134 141 135 135 128 137 134 138 148 138 141 108 123 129 115 105 93 83 80 96 109 122 132 138 138 137 145 151 147 127 124 145 136 63 68 80 74 59 67 88 107 102 104 117 139 138 153 167 154 173 198 183 162 176 184 181 177 188 198 207 208 207 205 212 218
186 191 184 188 180 167 156 164 161 216 199 156 151 149 149 143 138 137 135 134 132 133 126 128 129 136 127 115 74 68 62 54 35 36 114 103 111 107 24 60 126 142 131 135 137 131 120 124 120 116 110 105 90 101 95 66 66 57 26 82 111 110 115 114 126 143 160 175 152 171 188 225 176 173 199 187 188 184 190 186 218 221 213 210 220
180 222 182 155 170 168 163 164 157 147 223 166 142 144 143 135 130 127 123 119 122 126 120 118 108 75 76 82 81 74 68 50 31 17 26 82 120 108 95 104 102 109 135 139 135 121 112 91 79 77 95 97 104 87 84 88 75 55 23 58 67 74 55 61 102 143 160 168 160 143 180 205 268 255 153 175 182 245 228 187 204 214 222 221 218
183 198 165 146 170 170 151 143 100 151 208 150 136 138 137 127 121 123 119 119 123 117 119 90 92 88 75 76 78 69 63 52 32 3 17 47 72 123 104 101 90 103 103 86 93 101 96 94 91 93 94 99 97 93 88 96 97 78 33 62 65 76 63 57 41 51 100 138 160 153 153 182 232 220 153 163 196 208 217 193 221 224 219 220 235
174 165 170 186 180 141 123 102 87 185 201 141 137 132 130 131 118 123 124 111 90 76 75 87 89 95 93 75 73 70 60 55 19 2 345 331 62 57 87 99 96 108 103 96 95 100 108 107 113 115 109 101 94 89 85 83 85 99 107 85 82 75 81 70 58 49 55 52 11 294 169 210 229 212 217 222 187 183 192 205 224 243 212 208 264
127 124 148 158 120 95 105 95 97 73 316 134 133 125 129 126 127 109 82 86 92 92 91 87 86 84 90 89 76 72 66 41 12 2 3 39 72 67 66 104 114 104 104 105 118 113 114 122 128 123 111 100 99 104 104 101 100 96 87 88 87 106 105 88 94 101 100 87 99 78 84 322 277 247 220 230 235 198 192 171 193 189 195 192 220
16 113 94 101 124 132 123 111 100 93 77 330 71 108 102 99 93 95 96 90 89 90 88 89 87 87 86 84 74 67 66 24 15 15 22 42 66 79 73 53 37 79 90 80 96 99 100 84 69 65 66 83 94 90 82 96 110 111 109 97 85 69 83 117 117 71 95 89 31 307 66 246 228 261 272 328 297 335 307 167 177 177 208 219 228
17 27 40 74 112 121 117 105 100 98 93 74 350 91 94 94 97 95 94 98 88 86 91 90 87 85 86 83 73 56 56 22 20 19 21 32 60 75 66 68 73 72 77 79 83 90 84 65 48 30 23 32 50 69 102 84 84 105 110 110 110 113 105 96 71 127 154 126 140 266 215 232 328 294 234 225 175 196 327 348 6 136 161 172 214
21 25 32 22 63 88 94 82 85 92 94 83 84 87 87 85 93 96 97 90 88 86 85 85 86 82 83 87 82 61 48 19 29 26 18 18 33 68 73 80 82 80 83 84 78 72 76 83 72 60 34 11 10 18 48 88 78 56 41 45 62 88 106 121 140 158 179 177 179 237 244 181 236 243 262 221 227 250 211 233 211 231 233 224 206
23 26 35 23 28 59 73 80 78 77 94 93 74 67 75 85 80 82 85 87 88 83 82 84 79 84 81 86 82 62 40 25 35 31 21 14 15 72 78 82 81 84 86 87 93 93 91 87 81 72 65 41 1 352 10 7 29 34 19 5 2 4 6 42 186 194 207 193 198 233 263 250 245 261 267 246 237 215 201 205 209 213 226 279 334
25 27 33 25 26 32 48 72 84 80 82 94 89 85 75 73 86 88 91 85 82 85 72 75 79 77 75 76 76 62 39 28 35 35 27 19 24 59 83 86 82 71 70 75 74 79 98 111 109 101 86 66 4 7 11 343 42 39 350 329 333 334 352 330 325 313 309 304 296 297 297 309 292 273 292 273 252 233 38 12 5 359 355 328 277
24 27 30 22 24 33 40 48 61 66 61 80 91 91 95 89 71 85 95 89 85 78 80 75 73 76 72 66 71 67 46 26 36 38 36 28 40 51 64 73 76 76 51 58 57 52 49 67 84 81 70 66 19 27 22 37 45 33 25 12 355 6 23 0 19 48 25 328 287 282 280 278 266 261 267 261 242 230 42 352 283 282 318 297 279
20 24 28 26 19 29 47 45 57 64 56 54 69 86 81 88 105 99 91 93 88 87 90 81 69 70 73 69 64 69 52 28 34 38 41 38 45 52 48 75 77 84 89 66 65 59 63 73 87 101 87 69 40 36 28 41 48 28 27 6 3 355 341 348 345 343 347 336 327 305 280 263 258 257 257 255 253 214 176 214 233 199 235 229 258
23 21 19 21 28 26 42 59 43 55 61 53 46 67 78 77 71 73 76 80 79 79 80 84 79 68 68 72 66 65 55 34 32 39 43 42 52 53 51 64 82 81 100 97 84 78 67 55 61 69 76 74 59 47 30 36 50 28 15 13 358 333 305 327 340 342 342 343 338 343 329 317 289 260 255 239 233 226 222 234 220 211 248 248 244
9 17 23 26 29 33 40 53 56 51 61 62 54 45 53 66 66 76 73 75 79 73 70 74 80 70 63 67 65 67 67 49 40 45 49 50 53 66 56 65 65 63 65 88 106 101 84 74 65 79 85 79 71 61 50 47 64 14 31 356 324 295 310 326 318 335 317 315 311 316 307 310 317 312 303 290 246 217 230 237 225 217 230 239 237
14 8 14 29 34 36 38 49 56 52 49 61 65 62 62 69 67 70 79 78 81 78 77 79 81 76 66 66 73 62 68 70 49 52 56 58 59 67 63 62 50 61 73 65 65 86 87 84 106 91 85 81 83 93 88 326 285 276 234 227 227 234 337 318 316 342 313 308 310 314 315 318 320 324 328 323 306 252 229 244 239 229 229 235 250
22 19 20 26 31 35 37 38 51 58 59 61 70 71 60 68 74 81 82 89 93 94 95 91 92 90 82 74 77 74 61 63 63 45 51 56 56 57 66 48 349 33 69 70 68 70 83 95 71 50 49 43 17 339 288 260 264 273 261 252 276 312 306 301 297 308 317 323 326 322 322 331 334 336 331 322 316 289 235 234 210 60 32 28 206
26 26 24 26 24 28 33 40 42 52 66 67 73 75 68 63 64 81 101 104 105 119 121 125 114 101 92 76 70 76 70 62 57 57 42 44 52 64 70 60 29 49 67 71 71 73 47 40 44 41 24 349 325 298 283 268 240 246 261 279 303 301 290 284 297 302 305 302 312 311 312 336 343 339 334 331 325 335 14 60 71 76 68 56 58
28 33 32 34 36 36 34 36 40 46 49 53 56 59 51 67 64 48 51 102 124 124 132 115 112 115 109 97 79 70 63 64 47 42 41 33 29 31 36 44 47 46 60 62 48 36 18 7 354 343 339 328 312 294 274 229 231 266 281 287 286 277 259 268 267 268 284 307 322 325 334 324 331 334 331 325 4 52 59 53 58 58 69 63 56
32 39 38 37 40 43 43 42 42 43 47 51 51 49 48 43 46 29 34 28 26 64 71 116 133 133 110 104 100 84 64 54 46 28 27 28 34 35 37 35 30 41 49 34 32 22 7 352 344 339 332 327 323 316 312 241 204 196 207 213 208 201 208 212 222 256 335 323 321 334 338 331 319 307 305 18 56 55 64 51 60 61 62 73 66
22 20 27 33 38 36 38 44 45 45 45 49 54 50 52 48 51 42 48 55 64 64 58 57 65 77 88 88 73 62 45 48 38 28 17 20 25 28 35 37 33 45 51 26 5 0 360 347 336 340 339 337 343 343 334 328 328 324 320 261 197 193 208 207 34 34 354 16 37 27 350 344 349 336 356 56 66 60 96 84 71 40 49 64 63
23 24 26 27 29 37 40 37 43 40 39 43 46 47 43 46 50 47 44 47 50 55 51 55 61 72 85 81 71 58 44 34 27 21 19 13 22 23 28 26 23 28 27 8 1 358 342 344 325 313 313 324 335 327 334 339 353 359 360 1 359 353 357 102 96 79 67 57 33 16 4 348 340 12 359 23 44 22 79 117 109 126 102 85 86
8 8 19 35 47 41 52 51 54 48 39 40 41 36 41 47 56 44 39 31 57 61 61 59 62 69 78 84 85 67 51 36 20 13 2 9 11 24 29 35 28 22 14 1 346 340 337 334 350 9 15 27 31 38 36 34 32 25 18 15 22 30 51 70 60 62 56 54 42 16 14 10 13 347 347 38 33 17 3 91 132 146 150 117 72
20 7 4 10 26 46 65 64 68 70 66 53 49 39 22 31 52 60 32 20 27 84 92 79 77 77 78 71 80 77 62 51 23 321 308 344 36 26 23 17 5 15 15 358 344 350 5 16 22 28 38 44 39 35 28 31 30 33 37 33 35 39 35 32 43 36 31 51 43 38 19 12 2 353 4 33 15 8 7 30 14 48 56 75 121
5 4 6 7 355 23 73 66 80 86 83 88 83 63 51 52 43 54 40 17 34 35 57 97 110 104 85 48 34 86 97 97 281 337 354 16 12 12 354 356 3 353 351 2 46 32 25 43 40 42 37 39 35 27 20 26 33 33 29 32 37 43 48 50 51 44 47 58 47 50 28 32 25 11 28 28 11 20 15 35 32 24 47 42 68
43 12 11 359 349 340 41 114 98 71 82 88 80 91 82 45 45 51 57 47 42 43 51 63 82 91 99 93 60 78 102 85 37 21 12 359 351 348 347 344 355 4 3 19 39 48 48 54 42 41 37 41 41 24 22 33 36 47 40 40 41 39 41 48 35 47 56 57 47 48 40 49 40 30 41 25 29 17 17 19 37 42 52 52 61
75 40 10 0 345 342 17 35 108 134 109 86 99 104 95 90 50 26 31 36 36 40 43 50 60 74 84 96 101 64 53 43 31 20 0 345 328 348 16 67 84 82 280 207 62 44 47 52 49 43 36 38 25 22 23 31 34 49 51 49 35 28 40 34 16 55 51 54 52 47 49 47 52 46 46 42 47 39 29 30 27 29 26 33 39
44 18 22 19 19 15 37 33 34 53 113 139 134 127 115 111 106 78 15 18 40 45 41 39 49 60 73 71 74 90 72 34 31 27 24 23 21 59 76 68 68 22 48 54 61 54 44 48 46 39 39 33 18 18 13 27 40 48 56 59 45 21 31 21 41 58 51 53 58 51 49 49 51 55 48 40 46 47 28 35 13 32 35 31 7
54 51 32 21 23 17 38 36 22 14 50 85 114 154 147 131 126 122 111 65 35 19 21 30 33 55 62 89 96 87 65 46 38 36 38 44 54 72 86 77 68 44 59 62 58 52 44 42 37 35 31 28 20 15 21 27 41 60 58 56 52 32 21 13 46 46 49 47 58 51 46 41 37 57 48 37 30 41 41 24 22 23 13 20 11
50 28 31 38 44 22 10 43 26 19 13 9 55 127 169 155 132 141 140 133 128 122 123 69 342 334 20 55 69 55 45 39 36 37 43 53 61 68 66 55 46 32 36 43 54 50 41 36 29 23 26 28 17 25 29 34 43 50 51 49 42 35 26 34 48 57 63 54 49 46 47 50 49 60 67 53 34 26 14 8 3 12 9 358 5
79 82 61 41 37 45 18 0 43 25 359 359 352 360 41 128 154 164 154 143 134 131 115 107 37 334 25 29 22 38 37 39 43 47 54 57 55 58 60 52 52 44 46 40 49 47 42 32 33 26 24 15 17 18 20 32 41 53 52 63 52 41 37 41 44 48 48 54 45 40 41 34 33 44 46 43 34 20 7 7 354 346 2 0 354
100 63 36 29 22 46 18 349 342 8 5 357 18 34 37 35 89 139 151 133 115 106 106 86 51 22 13 30 43 53 47 53 53 50 54 60 60 61 65 63 62 55 51 45 46 45 43 36 31 26 17 14 5 9 11 24 34 50 48 55 61 55 49 58 60 61 60 58 49 47 50 42 41 43 58 45 17 14 2 352 348 354 4 338 12
64 42 23 13 358 28 24 7 354 22 16 20 40 44 51 52 47 60 85 106 102 92 83 69 81 78 68 22 47 82 68 52 47 39 32 43 57 64 62 56 57 58 50 43 43 57 57 43 28 19 9 8 8 1 13 28 38 53 57 53 51 52 54 51 44 50 47 49 40 29 35 32 28 30 37 46 16 343 332 325 328 333 336 326 340
22 17 10 2 349 12 15 21 32 36 15 1 38 49 39 35 57 84 92 97 91 85 82 82 73 68 62 76 73 71 69 55 58 52 36 40 57 79 83 76 67 58 51 41 46 63 67 48 26 16 7 6 4 10 20 24 41 53 63 72 60 51 52 46 46 42 46 37 23 13 25 13 10 3 19 9 325 308 310 324 313 324 332 319 295
26 304 339 328 323 323 347 72 77 60 49 37 26 34 31 34 47 87 107 107 112 113 115 102 80 65 71 85 93 85 84 89 96 93 71 57 68 79 91 89 81 72 62 49 51 73 72 48 39 23 12 5 6 6 15 31 34 48 61 65 66 54 45 67 68 64 52 21 6 342 341 328 319 325 330 331 312 307 305 297 274 266 233 284 13
217 256 247 269 284 284 332 19 42 91 86 64 54 51 35 21 45 76 100 113 118 120 107 97 89 85 91 113 111 101 107 109 97 88 88 65 66 80 94 102 104 92 71 57 60 74 72 56 31 25 14 17 16 23 20 34 51 54 51 54 59 54 36 13 8 357 355 10 5 355 335 324 332 7 350 335 352 16 7 33 35 14 22 40 57
169 215 255 262 260 264 350 62 72 44 75 85 73 72 48 30 49 74 84 106 113 107 97 95 112 110 102 109 112 114 102 91 77 73 68 74 76 71 76 81 91 96 80 64 79 93 88 75 43 31 36 27 29 21 26 27 34 58 63 62 56 50 42 21 8 6 358 358 346 345 344 0 6 15 26 25 33 45 45 42 37 42 52 54 51
87 172 222 250 249 169 132 144 135 107 91 85 76 69 84 76 62 109 101 100 109 109 109 135 261 42 119 124 132 123 117 114 99 93 90 86 82 79 78 82 82 75 67 70 99 128 142 142 128 83 75 61 46 44 44 38 44 47 48 53 45 39 27 13 12 4 357 356 344 330 343 360 17 23 28 23 15 43 54 54 48 46 30 46 63
20 0 343 313 253 117 122 114 104 105 109 102 79 81 81 75 72 130 119 123 115 118 135 163 163 174 143 119 127 124 115 108 106 106 102 98 99 105 105 99 90 82 76 68 66 82 97 81 61 32 28 16 40 59 59 57 64 67 57 54 46 39 29 16 6 357 343 340 357 348 346 6 28 36 24 12 33 38 14 22 39 47 47 29 49
50 10 334 319 325 111 122 122 136 141 142 115 102 357 355 58 65 105 106 109 102 99 88 310 286 124 167 164 118 117 123 130 131 120 120 125 126 127 133 130 125 118 112 102 97 93 87 87 85 80 63 25 22 71 74 66 62 64 66 68 65 46 15 351 334 318 338 12 3 354 353 18 25 18 21 12 30 36 14 350 335 8 32 18 39
31 331 320 317 353 124 141 146 146 145 142 135 107 22 4 22 129 112 117 120 123 131 176 248 253 182 171 134 138 142 142 132 133 138 135 131 135 145 146 147 146 140 137 135 126 117 123 123 111 87 51 31 35 45 56 63 62 63 60 63 60 59 332 297 308 356 5 6 357 1 7 25 17 16 16 17 20 18 22 13 7 12 13 357 203
107 306 302 327 315 158 156 154 146 142 149 139 126 119 22 50 121 125 116 116 120 147 247 253 268 202 140 139 150 156 153 134 133 135 139 142 142 140 142 139 127 123 133 147 147 148 151 152 110 83 78 72 67 64 61 57 56 55 54 45 38 16 0 344 355 359 343 350 10 30 24 36 35 29 24 33 33 22 24 22 3 8 13 27 356
165 235 282 285 304 110 164 159 154 160 156 152 159 146 149 132 111 144 152 160 184 199 219 252 255 217 147 169 167 156 148 133 131 134 137 143 141 123 128 140 135 136 129 123 124 122 106 85 81 81 79 71 71 64 61 53 51 45 40 30 23 10 354 348 4 6 3 12 29 44 47 43 35 32 26 41 43 27 29 2 353 5 11 11 0
206 225 247 349 317 342 176 167 166 161 174 170 168 162 175 168 145 176 174 196 205 223 234 224 223 190 152 176 163 157 130 141 143 144 145 154 143 130 125 138 154 150 138 140 143 120 102 96 90 88 86 81 79 79 70 65 51 42 31 22 8 6 12 14 21 9 4 14 24 35 42 45 41 26 20 19 18 20 17 0 2 356 355 3 9
41 359 11 357 324 331 264 197 175 169 170 167 183 195 191 187 181 169 186 197 217 233 241 229 204 194 186 169 180 149 118 142 143 157 162 159 152 142 124 122 138 151 154 162 163 133 112 107 102 99 95 95 90 85 81 72 58 45 32 18 9 13 12 12 22 19 12 356 359 31 47 40 33 28 22 18 3 12 21 3 356 350 355 359 349
106 94 337 14 346 328 324 260 188 169 169 183 188 184 201 205 196 203 186 178 203 229 237 236 107 105 164 140 141 132 134 154 155 159 158 158 159 154 145 139 142 143 143 139 142 138 125 119 118 116 113 110 103 99 91 87 71 59 35 25 20 14 13 16 6 356 1 1 345 20 39 31 25 16 12 8 14 24 27 19 11 3 357 356 355